Location: Omaha
(41.2590°N, 95.9380°W)
Time: 23:17:32
(UTC-05:00)

Vanguard 1 - Visible Passes

Search period start: 20 July 2018 00:00
Search period end: 30 July 2018 00:00
Orbit: 650 x 3833 km, 34.2° (Epoch: 20 July)

Date Brightness Start Highest point End Pass type
(mag) Time Alt. Az. Time Alt. Az. Time Alt. Az.
20 Jul 11.5 03:10:20 14° SE 03:10:20 14° SE 03:11:15 10° ESE visible
20 Jul 11.3 05:23:14 10° WSW 05:26:30 17° SSW 05:30:36 10° SSE visible
20 Jul 11.3 22:43:10 10° SSW 22:47:14 20° S 22:47:14 20° S visible
21 Jul 11.4 03:30:48 15° SE 03:30:48 15° SE 03:31:53 10° SE visible
21 Jul 11.1 23:03:24 10° SW 23:07:46 24° S 23:07:46 24° S visible
22 Jul 11.5 03:51:22 14° SSE 03:51:22 14° SSE 03:52:20 10° SE visible
22 Jul 11.0 23:23:58 10° SW 23:28:12 27° SSW 23:28:12 27° SSW visible
23 Jul 11.6 04:12:01 11° SSE 04:12:01 11° SSE 04:12:26 10° SSE visible
23 Jul 11.6 21:23:39 10° SSW 21:30:36 22° SSE 21:35:24 10° ESE visible
23 Jul 11.1 23:44:44 10° WSW 23:48:30 26° SW 23:48:30 26° SW visible
24 Jul 11.3 21:43:46 10° SW 21:51:35 28° SSE 21:55:59 13° ESE visible
25 Jul 11.3 00:05:40 10° WSW 00:08:43 23° SW 00:08:43 23° SW visible
25 Jul 11.0 22:04:15 10° SW 22:12:32 34° SSE 22:16:06 19° ESE visible
26 Jul 11.6 00:26:40 10° WSW 00:28:51 19° WSW 00:28:51 19° WSW visible
26 Jul 10.7 22:25:01 10° WSW 22:33:27 40° S 22:36:09 27° ESE visible
27 Jul 11.9 00:47:45 10° WSW 00:48:53 14° WSW 00:48:53 14° WSW visible
27 Jul 10.4 22:45:59 10° WSW 22:54:21 44° S 22:56:07 35° SE visible
28 Jul 10.2 23:07:04 10° WSW 23:15:13 46° S 23:16:01 44° SSE visible
29 Jul 11.3 21:04:14 10° SW 21:15:33 42° SSE 21:22:03 10° E visible
29 Jul 10.3 23:28:14 10° WSW 23:35:53 46° SSW 23:35:53 46° SSW visible
